Карточка аэропорта USNN

Внимание!
Информация на этой странице в стадии наполнения.
Если вы не увидели какой-то информации, или заметили неточность - пожалуйста сообщите нам!
Спасибо!
Команда RU-STAFF
Название аэропортаНижневартовск
Название аэропорта (англ.)Nizhnevartovsk
Превышение177 ft. (53.9 m.)
Координаты60°57', 76°28.998'
Высота перехода800m
Эшелон переходаQFE>=756mm:FL040; QFE<756=>729:FL050; QFE<729:FL060
Коды ответчика5630-5633
Зона ОрВДТюмень РПИ (USTV)
Данные METARUSNN 200700Z 07004MPS CAVOK 22/14 Q0999 R03/0///65 NOSIG RMK QFE745
Проноз погоды (TAF)USNN 200452Z 2006/2106 06006G12MPS 9999 SCT030 TEMPO 2006/2015 VRB16MPS -TSRA SQ BKN016CB BECMG 2015/2017 03004G12MPS
NOTAMshow/hide NOTAM
AWOS   TABLE

Информация о ВПП

ВПП Длина ВПП (м.) Покрытие Курс ВПП Частота ILS
033200Асфальтобетон26110.5
213200Асфальтобетон206111.9

Диспетчерские позиции

Позывной Наименование органа УВД Частота
USNN_APPНижневартовск - Круг120.400
USNN_TWRНижневартовск - Вышка118.100



Спутниковое изображение